London Gatwick, United Kingdom

9:42 AM BST on August 19, 2017 (GMT +0100)
Gatwick

Weather History for EGKK - October, 2012

Change the Weather History Date:

Monday, October 1, 2012

  Actual Average Record
Temperature  
Mean Temperature 56 °F -  
Max Temperature 60 °F 59 °F 82 °F (2011)
Min Temperature 51 °F 44 °F 42 °F (1996)
Degree Days  
Heating Degree Days 10    
Growing Degree Days 6 (Base 50)    
Moisture  
Dew Point 54 °F    
Average Humidity 88    
Maximum Humidity 100    
Minimum Humidity 82    
Precipitation  
Precipitation 0.00 in 0.10 in - ()
Sea Level Pressure  
Sea Level Pressure 29.90 in    
Wind  
Wind Speed 8 mph ()    
Max Wind Speed 13 mph    
Max Gust Speed -    
Visibility 5.4 miles    
Events Rain    
Averages and records for this station are not official NWS values.
T = Trace of Precipitation, MM = Missing Value Source: Averaged Metar Reports

Daily Weather History Graph

Daily Weather History Graph

Search for Another Location

Airport or City:

Trip Planner

Search our weather history database for the weather conditions in past years. The results will help you decide how hot, cold, wet, or windy it might be!

Date:

Astronomy

Oct. 01, 2012 Rise Set
Actual Time 7:01 AM BST 6:37 PM BST
Civil Twilight 6:28 AM BST 7:10 PM BST
Nautical Twilight 5:50 AM BST 7:49 PM BST
Astronomical Twilight 5:10 AM BST 8:28 PM BST
Moon 6:49 PM BST (10/1) 8:31 AM BST (10/1)
Length of Visible Light 12h 42m
Length of Day
11h 36m
Full, 98% of the Moon is Illuminated
Oct 1
Full
Oct 8
Last Quarter
Oct 15
New
Oct 22
First Quarter
Oct 29
Full

Hourly Weather History & Observations

Time (BST) Temp. Dew Point Humidity Pressure Visibility Wind Dir Wind Speed Gust Speed Precip Events Conditions
12:20 AM 57.2 °F 51.8 °F 82% 29.98 in 6.2 mi SW 9.2 mph - N/A   Overcast
12:50 AM 57.2 °F 51.8 °F 82% 29.98 in 6.2 mi SW 8.1 mph - N/A   Mostly Cloudy
1:20 AM 57.2 °F 51.8 °F 82% 29.98 in 6.2 mi SW 10.4 mph - N/A   Mostly Cloudy
1:50 AM 57.2 °F 51.8 °F 82% 29.98 in 6.2 mi SW 9.2 mph - N/A   Mostly Cloudy
2:20 AM 57.2 °F 51.8 °F 82% 29.98 in 6.2 mi SSW 10.4 mph - N/A   Mostly Cloudy
2:50 AM 57.2 °F 51.8 °F 82% 29.95 in 6.2 mi SSW 11.5 mph - N/A   Mostly Cloudy
3:20 AM 57.2 °F 51.8 °F 82% 29.95 in 6.2 mi SSW 9.2 mph - N/A   Scattered Clouds
3:50 AM 57.2 °F 51.8 °F 82% 29.95 in 5.0 mi SW 11.5 mph - N/A Rain Light Rain
4:20 AM 57.2 °F 51.8 °F 82% 29.92 in 6.2 mi SW 11.5 mph - N/A   Mostly Cloudy
4:50 AM 57.2 °F 51.8 °F 82% 29.92 in 6.2 mi SSW 9.2 mph - N/A   Mostly Cloudy
5:20 AM 57.2 °F 53.6 °F 88% 29.92 in 6.2 mi SSW 10.4 mph - N/A Rain Light Rain
5:50 AM 55.4 °F 53.6 °F 94% 29.92 in 3.1 mi SSW 9.2 mph - N/A Rain Light Rain
6:20 AM 57.2 °F 53.6 °F 88% 29.92 in 3.1 mi SSW 6.9 mph - N/A Rain Rain
6:50 AM 57.2 °F 55.4 °F 94% 29.92 in 1.6 mi SSW 8.1 mph - N/A   Drizzle
7:20 AM 57.2 °F 55.4 °F 94% 29.89 in 5.6 mi SSW 8.1 mph - N/A   Light Drizzle
7:50 AM 57.2 °F 55.4 °F 94% 29.89 in 4.3 mi SSW 8.1 mph - N/A Rain Light Rain
8:20 AM 57.2 °F 55.4 °F 94% 29.89 in 3.7 mi SSW 10.4 mph - N/A Rain Rain
8:50 AM 59.0 °F 57.2 °F 94% 29.89 in 3.7 mi SSW 8.1 mph - N/A Rain Light Rain
9:20 AM 59.0 °F 57.2 °F 94% 29.89 in 2.8 mi SSW 10.4 mph - N/A Rain Light Rain
9:50 AM 59.0 °F 57.2 °F 94% 29.89 in - SSW 11.5 mph - N/A Rain Light Rain
10:20 AM 59.0 °F 57.2 °F 94% 29.89 in 3.1 mi SSW 10.4 mph - N/A   Haze
10:50 AM 59.0 °F 57.2 °F 94% 29.89 in 3.7 mi SSW 12.7 mph - N/A   Light Drizzle
11:20 AM 60.8 °F 57.2 °F 88% 29.89 in 3.7 mi SW 9.2 mph - N/A   Mostly Cloudy
11:50 AM 59.0 °F 59.0 °F 100% 29.89 in - SW 9.2 mph - N/A   Light Drizzle
12:20 PM 60.8 °F 59.0 °F 94% 29.89 in 3.1 mi SW 6.9 mph - N/A   Light Drizzle
12:50 PM 60.8 °F 59.0 °F 94% 29.86 in 6.2 mi SW 8.1 mph - N/A   Light Drizzle
1:20 PM 60.8 °F 59.0 °F 94% 29.86 in 6.2 mi SW 12.7 mph - N/A   Mostly Cloudy
1:50 PM 60.8 °F 59.0 °F 94% 29.86 in 6.2 mi SW 9.2 mph - N/A   Mostly Cloudy
2:20 PM 60.8 °F 57.2 °F 88% 29.86 in 6.2 mi SW 10.4 mph - N/A   Mostly Cloudy
2:50 PM 60.8 °F 57.2 °F 88% 29.86 in 6.2 mi SW 11.5 mph - N/A   Mostly Cloudy
3:20 PM 60.8 °F 55.4 °F 82% 29.86 in 6.2 mi SW 11.5 mph - N/A Rain Light Rain Showers
3:50 PM 59.0 °F 55.4 °F 88% 29.86 in 6.2 mi SW 11.5 mph - N/A   Scattered Clouds
4:20 PM 59.0 °F 55.4 °F 88% 29.86 in 6.2 mi SW 9.2 mph - N/A   Scattered Clouds
4:50 PM 59.0 °F 53.6 °F 82% 29.86 in 6.2 mi SW 10.4 mph - N/A   Scattered Clouds
5:20 PM 59.0 °F 53.6 °F 82% 29.89 in 6.2 mi SW 10.4 mph - N/A   Scattered Clouds
5:50 PM 59.0 °F 53.6 °F 82% 29.86 in 6.2 mi SSW 9.2 mph - N/A   Partly Cloudy
6:20 PM 57.2 °F 51.8 °F 82% 29.86 in 6.2 mi SSW 8.1 mph - N/A   Partly Cloudy
6:50 PM 57.2 °F 51.8 °F 82% 29.86 in - SSW 9.2 mph - N/A   Clear
7:20 PM 57.2 °F 51.8 °F 82% 29.89 in - SSW 6.9 mph - N/A   Clear
7:50 PM 55.4 °F 51.8 °F 88% 29.89 in 6.2 mi SW 6.9 mph - N/A   Partly Cloudy
8:20 PM 55.4 °F 51.8 °F 88% 29.89 in 6.2 mi SW 6.9 mph - N/A   Scattered Clouds
8:50 PM 55.4 °F 51.8 °F 88% 29.89 in 6.2 mi SW 6.9 mph - N/A   Scattered Clouds
9:20 PM 55.4 °F 51.8 °F 88% 29.89 in 6.2 mi SW 6.9 mph - N/A   Scattered Clouds
9:50 PM 55.4 °F 51.8 °F 88% 29.92 in 6.2 mi SW 5.8 mph - N/A   Partly Cloudy
10:20 PM 53.6 °F 51.8 °F 94% 29.92 in - SSW 5.8 mph - N/A   Clear
10:50 PM 53.6 °F 50.0 °F 88% 29.92 in - SSW 5.8 mph - N/A   Clear
11:20 PM 51.8 °F 50.0 °F 94% 29.92 in 5.6 mi SSW 4.6 mph - N/A   Unknown
11:50 PM 51.8 °F 50.0 °F 94% 29.92 in 5.6 mi SSW 3.5 mph - N/A   Unknown